Time,TemperatureF,DewpointF,PressureIn,WindDirection,WindDirectionDegrees,WindSpeedMPH,WindSpeedGustMPH,Humidity,HourlyPrecipIn,Conditions,Clouds,dailyrainin,SoftwareType,DateUTC
2013-06-30 00:01:00,54.5,38.2,29.83,North,357,0.0,0.0,54,0.00,,---,0.00,VWS V13.00,2013-06-30 08:01:00,
2013-06-30 00:06:00,54.3,38.0,29.83,North,357,0.0,0.0,54,0.00,,---,0.00,VWS V13.00,2013-06-30 08:06:00,
2013-06-30 00:11:00,54.0,38.2,29.83,North,357,0.0,0.0,55,0.00,,---,0.00,VWS V13.00,2013-06-30 08:11:00,
2013-06-30 00:16:00,54.0,38.2,29.83,North,357,0.0,0.0,55,0.00,,---,0.00,VWS V13.00,2013-06-30 08:16:00,
2013-06-30 00:21:00,53.6,37.8,29.83,North,357,0.0,0.0,55,0.00,,---,0.00,VWS V13.00,2013-06-30 08:21:00,
2013-06-30 00:26:00,53.4,38.1,29.83,North,357,0.0,0.0,56,0.00,,---,0.00,VWS V13.00,2013-06-30 08:26:00,
2013-06-30 00:31:00,53.2,38.0,29.83,North,357,0.0,0.0,56,0.00,,---,0.00,VWS V13.00,2013-06-30 08:31:00,
2013-06-30 00:36:00,53.1,37.8,29.83,North,357,0.0,0.0,56,0.00,,---,0.00,VWS V13.00,2013-06-30 08:36:00,
2013-06-30 00:41:00,52.9,38.1,29.83,North,357,0.0,0.0,57,0.00,,---,0.00,VWS V13.00,2013-06-30 08:41:00,
2013-06-30 00:46:00,52.5,37.7,29.83,North,357,0.0,0.0,57,0.00,,---,0.00,VWS V13.00,2013-06-30 08:46:00,
2013-06-30 00:51:00,52.3,37.6,29.83,North,357,0.0,0.0,57,0.00,,---,0.00,VWS V13.00,2013-06-30 08:51:00,
2013-06-30 00:56:00,52.2,37.4,29.83,North,357,0.0,0.0,57,0.00,,---,0.00,VWS V13.00,2013-06-30 08:56:00,
2013-06-30 01:01:00,52.2,37.4,29.83,North,357,0.0,0.0,57,0.00,,---,0.00,VWS V13.00,2013-06-30 09:01:00,
2013-06-30 01:06:00,52.0,37.7,29.83,North,357,0.0,0.0,58,0.00,,---,0.00,VWS V13.00,2013-06-30 09:06:00,
2013-06-30 01:11:00,51.8,37.5,29.83,North,357,0.0,0.0,58,0.00,,---,0.00,VWS V13.00,2013-06-30 09:11:00,
2013-06-30 01:16:00,51.6,37.8,29.83,North,357,0.0,0.0,59,0.00,,---,0.00,VWS V13.00,2013-06-30 09:16:00,
2013-06-30 01:21:00,51.6,37.8,29.83,North,357,0.0,0.0,59,0.00,,---,0.00,VWS V13.00,2013-06-30 09:21:00,
2013-06-30 01:26:00,51.4,38.0,29.83,North,357,0.0,0.0,60,0.00,,---,0.00,VWS V13.00,2013-06-30 09:26:00,
2013-06-30 01:31:00,51.4,38.0,29.83,North,357,0.0,0.0,60,0.00,,---,0.00,VWS V13.00,2013-06-30 09:31:00,
2013-06-30 01:36:00,51.3,37.9,29.83,North,357,0.0,0.0,60,0.00,,---,0.00,VWS V13.00,2013-06-30 09:36:00,
2013-06-30 01:41:00,51.1,38.1,29.83,North,357,0.0,0.0,61,0.00,,---,0.00,VWS V13.00,2013-06-30 09:41:00,
2013-06-30 01:46:00,51.1,38.1,29.83,North,357,0.0,0.0,61,0.00,,---,0.00,VWS V13.00,2013-06-30 09:46:00,
2013-06-30 01:51:00,51.1,38.1,29.83,North,357,0.0,0.0,61,0.00,,---,0.00,VWS V13.00,2013-06-30 09:51:00,
2013-06-30 01:56:00,50.5,38.4,29.83,North,357,0.0,0.0,63,0.00,,---,0.00,VWS V13.00,2013-06-30 09:56:00,
2013-06-30 02:01:00,50.4,38.3,29.83,North,357,0.0,0.0,63,0.00,,---,0.00,VWS V13.00,2013-06-30 10:01:00,
2013-06-30 02:07:00,50.4,38.7,29.85,North,357,0.0,0.0,64,0.00,,---,0.00,VWS V13.00,2013-06-30 10:07:00,
2013-06-30 02:12:00,50.4,38.7,29.85,North,357,0.0,0.0,64,0.00,,---,0.00,VWS V13.00,2013-06-30 10:12:00,
2013-06-30 02:17:00,50.4,38.7,29.85,North,357,0.0,0.0,64,0.00,,---,0.00,VWS V13.00,2013-06-30 10:17:00,
2013-06-30 02:22:00,50.2,38.9,29.85,North,357,0.0,0.0,65,0.00,,---,0.00,VWS V13.00,2013-06-30 10:22:00,
2013-06-30 02:27:00,50.0,38.7,29.85,North,357,0.0,0.0,65,0.00,,---,0.00,VWS V13.00,2013-06-30 10:27:00,
2013-06-30 02:31:00,50.0,38.7,29.85,North,357,0.0,0.0,65,0.00,,---,0.00,VWS V13.00,2013-06-30 10:31:00,
2013-06-30 02:36:00,50.0,39.1,29.85,North,357,0.0,0.0,66,0.00,,---,0.00,VWS V13.00,2013-06-30 10:36:00,
2013-06-30 02:41:00,50.0,39.5,29.85,North,357,0.0,0.0,67,0.00,,---,0.00,VWS V13.00,2013-06-30 10:41:00,
2013-06-30 02:46:00,49.8,39.3,29.85,North,357,0.0,0.0,67,0.00,,---,0.00,VWS V13.00,2013-06-30 10:46:00,
2013-06-30 02:51:00,49.8,39.7,29.85,North,357,0.0,0.0,68,0.00,,---,0.00,VWS V13.00,2013-06-30 10:51:00,
2013-06-30 02:56:00,49.6,39.5,29.85,North,357,0.0,0.0,68,0.00,,---,0.00,VWS V13.00,2013-06-30 10:56:00,
2013-06-30 03:01:00,49.5,39.3,29.85,North,357,0.0,0.0,68,0.00,,---,0.00,VWS V13.00,2013-06-30 11:01:00,
2013-06-30 03:06:00,49.5,39.7,29.85,North,357,0.0,0.0,69,0.00,,---,0.00,VWS V13.00,2013-06-30 11:06:00,
2013-06-30 03:11:00,49.5,39.7,29.85,North,357,0.0,0.0,69,0.00,,---,0.00,VWS V13.00,2013-06-30 11:11:00,
2013-06-30 03:17:00,49.3,39.5,29.85,North,357,0.0,0.0,69,0.00,,---,0.00,VWS V13.00,2013-06-30 11:17:00,
2013-06-30 03:22:00,49.3,39.9,29.85,North,357,0.0,0.0,70,0.00,,---,0.00,VWS V13.00,2013-06-30 11:22:00,
2013-06-30 03:27:00,49.1,39.8,29.85,North,357,0.0,0.0,70,0.00,,---,0.00,VWS V13.00,2013-06-30 11:27:00,
2013-06-30 03:32:00,49.3,39.9,29.85,North,357,0.0,0.0,70,0.00,,---,0.00,VWS V13.00,2013-06-30 11:32:00,
2013-06-30 03:37:00,49.1,39.8,29.85,North,357,0.0,0.0,70,0.00,,---,0.00,VWS V13.00,2013-06-30 11:37:00,
2013-06-30 03:42:00,49.1,39.8,29.85,North,357,0.0,0.0,70,0.00,,---,0.00,VWS V13.00,2013-06-30 11:42:00,
2013-06-30 03:47:00,49.1,40.1,29.85,North,357,0.0,0.0,71,0.00,,---,0.00,VWS V13.00,2013-06-30 11:47:00,
2013-06-30 03:52:00,49.1,40.1,29.85,North,357,0.0,0.0,71,0.00,,---,0.00,VWS V13.00,2013-06-30 11:52:00,
2013-06-30 03:57:00,49.3,40.7,29.85,North,357,0.0,0.0,72,0.00,,---,0.00,VWS V13.00,2013-06-30 11:57:00,
2013-06-30 04:02:00,49.3,40.7,29.85,North,357,0.0,0.0,72,0.00,,---,0.00,VWS V13.00,2013-06-30 12:02:00,
2013-06-30 04:07:00,49.3,40.7,29.85,North,357,0.0,0.0,72,0.00,,---,0.00,VWS V13.00,2013-06-30 12:07:00,
2013-06-30 04:12:00,49.3,40.7,29.85,North,357,0.0,0.0,72,0.00,,---,0.00,VWS V13.00,2013-06-30 12:12:00,
2013-06-30 04:17:00,49.3,40.7,29.85,North,357,0.0,0.0,72,0.00,,---,0.00,VWS V13.00,2013-06-30 12:17:00,
2013-06-30 04:22:00,49.5,41.2,29.85,North,357,0.0,0.0,73,0.00,,---,0.00,VWS V13.00,2013-06-30 12:22:00,
2013-06-30 04:27:00,49.5,41.2,29.85,North,357,0.0,0.0,73,0.00,,---,0.00,VWS V13.00,2013-06-30 12:27:00,
2013-06-30 04:32:00,49.6,41.3,29.85,North,357,0.0,0.0,73,0.00,,---,0.00,VWS V13.00,2013-06-30 12:32:00,
2013-06-30 04:37:00,49.6,41.3,29.85,North,357,0.0,0.0,73,0.00,,---,0.00,VWS V13.00,2013-06-30 12:37:00,
2013-06-30 04:42:00,49.6,41.3,29.85,North,357,0.0,0.0,73,0.00,,---,0.00,VWS V13.00,2013-06-30 12:42:00,
2013-06-30 04:47:00,49.8,41.9,29.85,North,357,0.0,0.0,74,0.00,,---,0.00,VWS V13.00,2013-06-30 12:47:00,
2013-06-30 04:52:00,49.8,41.9,29.85,North,357,0.0,0.0,74,0.00,,---,0.00,VWS V13.00,2013-06-30 12:52:00,
2013-06-30 04:57:00,49.8,41.9,29.85,North,357,0.0,0.0,74,0.00,,---,0.00,VWS V13.00,2013-06-30 12:57:00,
2013-06-30 05:02:00,49.8,41.9,29.83,North,357,0.0,0.0,74,0.00,,---,0.00,VWS V13.00,2013-06-30 13:02:00,
2013-06-30 05:07:00,50.0,42.0,29.83,North,357,0.0,0.0,74,0.00,,---,0.00,VWS V13.00,2013-06-30 13:07:00,
2013-06-30 05:12:00,50.0,42.0,29.83,North,357,0.0,0.0,74,0.00,,---,0.00,VWS V13.00,2013-06-30 13:12:00,
2013-06-30 05:17:00,49.8,41.9,29.83,North,357,0.0,0.0,74,0.00,,---,0.00,VWS V13.00,2013-06-30 13:17:00,
2013-06-30 05:22:00,49.8,42.2,29.83,North,357,0.0,0.0,75,0.00,,---,0.00,VWS V13.00,2013-06-30 13:22:00,
2013-06-30 05:27:00,49.8,42.2,29.83,North,357,0.0,0.0,75,0.00,,---,0.00,VWS V13.00,2013-06-30 13:27:00,
2013-06-30 05:32:00,49.8,42.2,29.83,North,357,0.0,0.0,75,0.00,,---,0.00,VWS V13.00,2013-06-30 13:32:00,
2013-06-30 05:37:00,49.6,42.0,29.83,North,357,0.0,0.0,75,0.00,,---,0.00,VWS V13.00,2013-06-30 13:37:00,
2013-06-30 05:42:00,49.6,42.0,29.83,North,357,0.0,0.0,75,0.00,,---,0.00,VWS V13.00,2013-06-30 13:42:00,
2013-06-30 05:47:00,49.6,42.0,29.83,North,357,0.0,0.0,75,0.00,,---,0.00,VWS V13.00,2013-06-30 13:47:00,
2013-06-30 05:52:00,49.6,42.0,29.83,North,357,0.0,0.0,75,0.00,,---,0.00,VWS V13.00,2013-06-30 13:52:00,
2013-06-30 05:57:00,49.6,42.0,29.83,North,357,0.0,0.0,75,0.00,,---,0.00,VWS V13.00,2013-06-30 13:57:00,
2013-06-30 06:02:00,49.5,41.9,29.83,North,357,0.0,0.0,75,0.00,,---,0.00,VWS V13.00,2013-06-30 14:02:00,
2013-06-30 06:07:00,49.6,42.4,29.83,North,357,0.0,0.0,76,0.00,,---,0.00,VWS V13.00,2013-06-30 14:07:00,
2013-06-30 06:12:00,49.6,42.4,29.83,North,357,0.0,0.0,76,0.00,,---,0.00,VWS V13.00,2013-06-30 14:12:00,
2013-06-30 06:17:00,49.6,42.4,29.83,North,357,0.0,0.0,76,0.00,,---,0.00,VWS V13.00,2013-06-30 14:17:00,
2013-06-30 06:22:00,49.6,42.4,29.83,North,357,0.0,0.0,76,0.00,,---,0.00,VWS V13.00,2013-06-30 14:22:00,
2013-06-30 06:27:00,49.8,42.6,29.83,North,357,0.0,0.0,76,0.00,,---,0.00,VWS V13.00,2013-06-30 14:27:00,
2013-06-30 06:32:00,50.0,42.7,29.83,North,357,0.0,0.0,76,0.00,,---,0.00,VWS V13.00,2013-06-30 14:32:00,
2013-06-30 06:37:00,50.0,42.7,29.83,North,357,0.0,0.0,76,0.00,,---,0.00,VWS V13.00,2013-06-30 14:37:00,
2013-06-30 06:42:00,50.2,42.9,29.83,North,357,0.0,0.0,76,0.00,,---,0.00,VWS V13.00,2013-06-30 14:42:00,
2013-06-30 06:47:00,50.2,42.9,29.83,North,357,0.0,0.0,76,0.00,,---,0.00,VWS V13.00,2013-06-30 14:47:00,
2013-06-30 06:52:00,50.4,43.1,29.83,WSW,237,0.0,0.0,76,0.00,,---,0.00,VWS V13.00,2013-06-30 14:52:00,
2013-06-30 06:57:00,50.5,43.6,29.83,SW,217,0.0,0.0,77,0.00,,---,0.00,VWS V13.00,2013-06-30 14:57:00,
2013-06-30 07:02:00,50.5,43.6,29.83,WSW,241,0.0,0.0,77,0.00,,---,0.00,VWS V13.00,2013-06-30 15:02:00,
2013-06-30 07:07:00,50.7,43.8,29.83,SSW,207,0.0,0.0,77,0.00,,---,0.00,VWS V13.00,2013-06-30 15:07:00,
2013-06-30 07:12:00,50.9,44.0,29.83,SSW,210,0.0,0.0,77,0.00,,---,0.00,VWS V13.00,2013-06-30 15:12:00,
2013-06-30 07:17:00,50.9,44.0,29.83,SSW,212,0.0,0.0,77,0.00,,---,0.00,VWS V13.00,2013-06-30 15:17:00,
2013-06-30 07:22:00,50.9,44.0,29.83,SSW,196,0.0,0.0,77,0.00,,---,0.00,VWS V13.00,2013-06-30 15:22:00,
2013-06-30 07:27:00,51.1,44.1,29.83,SW,226,0.0,0.0,77,0.00,,---,0.00,VWS V13.00,2013-06-30 15:27:00,
2013-06-30 07:32:00,51.1,44.1,29.83,SSW,212,0.0,0.0,77,0.00,,---,0.00,VWS V13.00,2013-06-30 15:32:00,
2013-06-30 07:37:00,51.3,44.6,29.83,SSW,197,0.0,0.0,78,0.00,,---,0.00,VWS V13.00,2013-06-30 15:37:00,
2013-06-30 07:42:00,51.3,44.6,29.83,SSW,197,0.0,0.0,78,0.00,,---,0.00,VWS V13.00,2013-06-30 15:42:00,
2013-06-30 07:47:00,51.3,44.6,29.83,SSW,209,0.0,0.0,78,0.00,,---,0.00,VWS V13.00,2013-06-30 15:47:00,
2013-06-30 07:52:00,51.3,44.6,29.83,SSE,157,0.0,0.0,78,0.00,,---,0.00,VWS V13.00,2013-06-30 15:52:00,
2013-06-30 07:57:00,51.3,44.6,29.83,SSW,213,0.0,0.0,78,0.00,,---,0.00,VWS V13.00,2013-06-30 15:57:00,
2013-06-30 08:02:00,51.4,44.8,29.83,SSW,205,0.0,0.0,78,0.00,,---,0.00,VWS V13.00,2013-06-30 16:02:00,
2013-06-30 08:07:00,51.4,44.8,29.83,SW,230,0.0,0.0,78,0.00,,---,0.00,VWS V13.00,2013-06-30 16:07:00,
2013-06-30 08:12:00,51.8,45.2,29.83,SSW,206,0.0,0.0,78,0.00,,---,0.00,VWS V13.00,2013-06-30 16:12:00,
2013-06-30 08:17:00,51.8,45.2,29.83,SSW,198,0.0,0.0,78,0.00,,---,0.00,VWS V13.00,2013-06-30 16:17:00,
2013-06-30 08:22:00,52.2,45.5,29.83,SSW,210,0.0,0.0,78,0.00,,---,0.00,VWS V13.00,2013-06-30 16:22:00,
2013-06-30 08:27:00,52.2,45.5,29.83,SW,218,0.0,0.0,78,0.00,,---,0.00,VWS V13.00,2013-06-30 16:27:00,
2013-06-30 08:32:00,52.2,45.5,29.83,SSW,212,0.0,0.0,78,0.00,,---,0.00,VWS V13.00,2013-06-30 16:32:00,
2013-06-30 08:37:00,52.9,46.2,29.83,SSE,158,0.0,0.0,78,0.00,,---,0.00,VWS V13.00,2013-06-30 16:37:00,
2013-06-30 08:42:00,52.9,46.2,29.83,SW,217,0.0,0.0,78,0.00,,---,0.00,VWS V13.00,2013-06-30 16:42:00,
2013-06-30 08:47:00,53.2,46.6,29.83,SSW,192,0.0,0.0,78,0.00,,---,0.00,VWS V13.00,2013-06-30 16:47:00,
2013-06-30 08:52:00,53.2,46.6,29.83,SSW,213,0.0,0.0,78,0.00,,---,0.00,VWS V13.00,2013-06-30 16:52:00,
2013-06-30 08:57:00,53.4,46.4,29.83,South,187,0.0,0.0,77,0.00,,---,0.00,VWS V13.00,2013-06-30 16:57:00,
2013-06-30 09:02:00,53.8,46.8,29.83,SSW,204,0.0,0.0,77,0.00,,---,0.00,VWS V13.00,2013-06-30 17:02:00,
2013-06-30 09:07:00,54.0,46.9,29.83,SSE,157,0.0,0.0,77,0.00,,---,0.00,VWS V13.00,2013-06-30 17:07:00,
2013-06-30 09:12:00,54.0,46.6,29.83,SE,130,0.0,0.0,76,0.00,,---,0.00,VWS V13.00,2013-06-30 17:12:00,
2013-06-30 09:17:00,54.0,46.6,29.83,SW,224,0.0,0.0,76,0.00,,---,0.00,VWS V13.00,2013-06-30 17:17:00,
2013-06-30 09:22:00,54.3,46.6,29.83,SW,219,0.0,0.0,75,0.00,,---,0.00,VWS V13.00,2013-06-30 17:22:00,
2013-06-30 09:27:00,54.5,46.8,29.83,SW,227,0.0,0.0,75,0.00,,---,0.00,VWS V13.00,2013-06-30 17:27:00,
2013-06-30 09:32:00,54.5,46.8,29.83,SSW,198,0.0,0.0,75,0.00,,---,0.00,VWS V13.00,2013-06-30 17:32:00,
2013-06-30 09:37:00,54.5,46.8,29.83,SW,216,0.0,0.0,75,0.00,,---,0.00,VWS V13.00,2013-06-30 17:37:00,
2013-06-30 09:42:00,54.9,46.7,29.83,SW,230,0.0,0.0,74,0.00,,---,0.00,VWS V13.00,2013-06-30 17:42:00,
2013-06-30 09:47:00,55.0,46.9,29.83,SW,229,0.0,4.5,74,0.00,,---,0.00,VWS V13.00,2013-06-30 17:47:00,
2013-06-30 09:52:00,55.0,46.9,29.80,SW,229,0.0,4.5,74,0.00,,---,0.00,VWS V13.00,2013-06-30 17:52:00,
2013-06-30 09:57:00,55.4,46.5,29.80,SW,229,0.0,4.5,72,0.00,,---,0.00,VWS V13.00,2013-06-30 17:57:00,
2013-06-30 10:02:00,55.6,46.7,29.80,WSW,247,0.0,0.0,72,0.00,,---,0.00,VWS V13.00,2013-06-30 18:02:00,
2013-06-30 10:07:00,55.8,46.5,29.80,SW,228,0.0,0.0,71,0.00,,---,0.00,VWS V13.00,2013-06-30 18:07:00,
2013-06-30 10:12:00,55.9,46.7,29.80,WSW,254,0.0,0.0,71,0.00,,---,0.00,VWS V13.00,2013-06-30 18:12:00,
2013-06-30 10:17:00,55.9,46.7,29.80,WSW,253,0.0,0.0,71,0.00,,---,0.00,VWS V13.00,2013-06-30 18:17:00,
2013-06-30 10:22:00,56.5,46.5,29.80,WSW,254,0.0,0.0,69,0.00,,---,0.00,VWS V13.00,2013-06-30 18:22:00,
2013-06-30 10:27:00,56.5,46.5,29.80,SW,222,0.0,0.0,69,0.00,,---,0.00,VWS V13.00,2013-06-30 18:27:00,
2013-06-30 10:32:00,56.7,45.4,29.80,West,259,0.0,0.0,66,0.00,,---,0.00,VWS V13.00,2013-06-30 18:32:00,
2013-06-30 10:37:00,56.7,45.4,29.80,West,260,0.0,0.0,66,0.00,,---,0.00,VWS V13.00,2013-06-30 18:37:00,
2013-06-30 10:42:00,56.5,44.5,29.80,SW,222,0.0,0.0,64,0.00,,---,0.00,VWS V13.00,2013-06-30 18:42:00,
2013-06-30 10:47:00,56.7,44.2,29.80,SW,224,0.0,0.0,63,0.00,,---,0.00,VWS V13.00,2013-06-30 18:47:00,
2013-06-30 10:52:00,56.7,44.2,29.80,SSW,212,0.0,0.0,63,0.00,,---,0.00,VWS V13.00,2013-06-30 18:52:00,
2013-06-30 10:57:00,57.0,44.1,29.80,WSW,258,0.0,0.0,62,0.00,,---,0.00,VWS V13.00,2013-06-30 18:57:00,
2013-06-30 11:02:00,57.0,43.7,29.80,West,269,0.0,0.0,61,0.00,,---,0.00,VWS V13.00,2013-06-30 19:02:00,
2013-06-30 11:07:00,57.4,43.6,29.80,SSW,203,0.0,0.0,60,0.00,,---,0.00,VWS V13.00,2013-06-30 19:07:00,
2013-06-30 11:12:00,57.4,43.6,29.80,SW,235,0.0,0.0,60,0.00,,---,0.00,VWS V13.00,2013-06-30 19:12:00,
2013-06-30 11:17:00,57.6,43.4,29.80,West,269,0.0,0.0,59,0.00,,---,0.00,VWS V13.00,2013-06-30 19:17:00,
2013-06-30 11:22:00,57.7,42.6,29.80,SSW,195,0.0,0.0,57,0.00,,---,0.00,VWS V13.00,2013-06-30 19:22:00,
2013-06-30 11:27:00,57.7,42.6,29.80,SW,225,0.0,0.0,57,0.00,,---,0.00,VWS V13.00,2013-06-30 19:27:00,
2013-06-30 11:32:00,57.7,41.7,29.80,SW,227,0.0,0.0,55,0.00,,---,0.00,VWS V13.00,2013-06-30 19:32:00,
2013-06-30 11:37:00,57.7,41.7,29.80,SSW,213,0.0,0.0,55,0.00,,---,0.00,VWS V13.00,2013-06-30 19:37:00,
2013-06-30 11:42:00,57.6,41.1,29.80,SW,236,0.0,0.0,54,0.00,,---,0.00,VWS V13.00,2013-06-30 19:42:00,
2013-06-30 11:47:00,57.4,40.9,29.80,WSW,245,0.0,0.0,54,0.00,,---,0.00,VWS V13.00,2013-06-30 19:47:00,
2013-06-30 11:52:00,57.4,40.9,29.77,SW,218,3.1,7.6,54,0.00,,---,0.00,VWS V13.00,2013-06-30 19:52:00,
2013-06-30 11:57:00,57.4,40.9,29.77,WSW,253,6.3,7.6,54,0.00,,---,0.00,VWS V13.00,2013-06-30 19:57:00,
2013-06-30 12:02:00,57.4,40.9,29.77,WSW,249,8.3,8.3,54,0.00,,---,0.00,VWS V13.00,2013-06-30 20:02:00,
2013-06-30 12:07:00,57.4,41.4,29.77,SW,229,7.6,8.3,55,0.00,,---,0.00,VWS V13.00,2013-06-30 20:07:00,
2013-06-30 12:12:00,57.4,41.4,29.77,SW,216,0.0,8.3,55,0.00,,---,0.00,VWS V13.00,2013-06-30 20:12:00,
2013-06-30 12:17:00,57.6,41.5,29.77,West,260,5.8,8.3,55,0.00,,---,0.00,VWS V13.00,2013-06-30 20:17:00,
2013-06-30 12:22:00,57.6,41.5,29.77,WSW,240,8.3,8.3,55,0.00,,---,0.00,VWS V13.00,2013-06-30 20:22:00,
2013-06-30 12:27:00,57.6,41.1,29.77,WSW,248,0.0,8.3,54,0.00,,---,0.00,VWS V13.00,2013-06-30 20:27:00,
2013-06-30 12:32:00,57.6,41.1,29.77,WSW,248,10.5,10.5,54,0.00,,---,0.00,VWS V13.00,2013-06-30 20:32:00,
2013-06-30 12:37:00,57.6,41.1,29.77,WSW,248,0.0,10.5,54,0.00,,---,0.00,VWS V13.00,2013-06-30 20:37:00,
2013-06-30 12:42:00,57.2,40.7,29.77,WNW,283,0.0,0.0,54,0.00,,---,0.00,VWS V13.00,2013-06-30 20:42:00,
2013-06-30 12:47:00,57.2,41.2,29.77,WSW,239,0.0,0.0,55,0.00,,---,0.00,VWS V13.00,2013-06-30 20:47:00,
2013-06-30 12:52:00,57.0,41.5,29.77,WSW,248,0.0,0.0,56,0.00,,---,0.00,VWS V13.00,2013-06-30 20:52:00,
2013-06-30 12:57:00,57.0,41.5,29.77,SE,141,5.4,6.7,56,0.00,,---,0.00,VWS V13.00,2013-06-30 20:57:00,
2013-06-30 13:02:00,57.0,41.5,29.77,WSW,256,2.7,2.7,56,0.00,,---,0.00,VWS V13.00,2013-06-30 21:02:00,
2013-06-30 13:07:00,57.2,42.1,29.77,SW,236,3.6,3.6,57,0.00,,---,0.00,VWS V13.00,2013-06-30 21:07:00,
2013-06-30 13:12:00,57.2,42.1,29.77,West,259,5.8,5.8,57,0.00,,---,0.00,VWS V13.00,2013-06-30 21:12:00,
2013-06-30 13:17:00,57.4,41.8,29.77,West,259,5.8,5.8,56,0.00,,---,0.00,VWS V13.00,2013-06-30 21:17:00,
2013-06-30 13:22:00,57.4,41.8,29.77,SSW,199,7.6,7.6,56,0.00,,---,0.00,VWS V13.00,2013-06-30 21:22:00,
2013-06-30 13:27:00,57.4,41.8,29.77,SW,231,12.8,12.8,56,0.00,,---,0.00,VWS V13.00,2013-06-30 21:27:00,
2013-06-30 13:32:00,57.6,42.0,29.77,SW,220,5.4,12.8,56,0.00,,---,0.00,VWS V13.00,2013-06-30 21:32:00,
2013-06-30 13:37:00,57.7,42.2,29.77,WSW,250,0.0,12.8,56,0.00,,---,0.00,VWS V13.00,2013-06-30 21:37:00,
2013-06-30 13:42:00,57.9,41.9,29.77,SW,228,7.6,7.6,55,0.00,,---,0.00,VWS V13.00,2013-06-30 21:42:00,
2013-06-30 13:47:00,58.1,42.0,29.77,SW,234,0.0,7.6,55,0.00,,---,0.00,VWS V13.00,2013-06-30 21:47:00,
2013-06-30 13:52:00,58.1,42.0,29.77,SW,225,0.0,7.6,55,0.00,,---,0.00,VWS V13.00,2013-06-30 21:52:00,
2013-06-30 13:57:00,57.9,40.9,29.77,West,265,0.0,7.6,53,0.00,,---,0.00,VWS V13.00,2013-06-30 21:57:00,
2013-06-30 14:02:00,57.7,40.7,29.77,WSW,249,0.0,0.0,53,0.00,,---,0.00,VWS V13.00,2013-06-30 22:02:00,
2013-06-30 14:07:00,57.6,41.1,29.77,SW,225,0.0,0.0,54,0.00,,---,0.00,VWS V13.00,2013-06-30 22:07:00,
2013-06-30 14:12:00,57.6,41.1,29.77,SSW,207,8.7,11.0,54,0.00,,---,0.00,VWS V13.00,2013-06-30 22:12:00,
2013-06-30 14:17:00,57.4,40.9,29.77,SW,219,7.2,11.0,54,0.00,,---,0.00,VWS V13.00,2013-06-30 22:17:00,
2013-06-30 14:22:00,57.4,40.9,29.77,SSW,199,2.2,7.2,54,0.00,,---,0.00,VWS V13.00,2013-06-30 22:22:00,
2013-06-30 14:27:00,57.2,40.7,29.77,SW,221,9.2,9.2,54,0.00,,---,0.00,VWS V13.00,2013-06-30 22:27:00,
2013-06-30 14:32:00,57.2,40.7,29.77,WSW,244,10.5,10.5,54,0.00,,---,0.00,VWS V13.00,2013-06-30 22:32:00,
2013-06-30 14:37:00,57.2,40.7,29.77,SW,235,2.2,11.0,54,0.00,,---,0.00,VWS V13.00,2013-06-30 22:37:00,
2013-06-30 14:42:00,57.4,40.9,29.77,WSW,256,6.3,6.3,54,0.00,,---,0.00,VWS V13.00,2013-06-30 22:42:00,
2013-06-30 14:47:00,57.6,41.1,29.77,WSW,250,9.2,9.2,54,0.00,,---,0.00,VWS V13.00,2013-06-30 22:47:00,
2013-06-30 14:52:00,57.4,40.4,29.77,WSW,258,7.6,9.2,53,0.00,,---,0.00,VWS V13.00,2013-06-30 22:52:00,
2013-06-30 14:57:00,57.4,40.4,29.77,West,275,4.0,9.2,53,0.00,,---,0.00,VWS V13.00,2013-06-30 22:57:00,
2013-06-30 15:02:00,57.2,40.2,29.77,West,260,8.1,8.1,53,0.00,,---,0.00,VWS V13.00,2013-06-30 23:02:00,
2013-06-30 15:07:00,57.0,40.1,29.74,WSW,246,6.3,8.1,53,0.00,,---,0.00,VWS V13.00,2013-06-30 23:07:00,
2013-06-30 15:12:00,56.8,39.9,29.74,WSW,251,0.0,8.1,53,0.00,,---,0.00,VWS V13.00,2013-06-30 23:12:00,
2013-06-30 15:17:00,56.8,39.9,29.74,SW,231,5.8,8.1,53,0.00,,---,0.00,VWS V13.00,2013-06-30 23:17:00,
2013-06-30 15:22:00,56.8,39.9,29.74,SW,235,0.0,0.0,53,0.00,,---,0.00,VWS V13.00,2013-06-30 23:22:00,
2013-06-30 15:27:00,56.5,39.6,29.74,WSW,256,7.6,7.6,53,0.00,,---,0.00,VWS V13.00,2013-06-30 23:27:00,
2013-06-30 15:32:00,56.3,39.4,29.74,West,267,6.3,8.3,53,0.00,,---,0.00,VWS V13.00,2013-06-30 23:32:00,
2013-06-30 15:37:00,56.1,39.7,29.74,WSW,254,0.0,8.3,54,0.00,,---,0.00,VWS V13.00,2013-06-30 23:37:00,
2013-06-30 15:42:00,55.9,39.5,29.74,SW,229,12.8,12.8,54,0.00,,---,0.00,VWS V13.00,2013-06-30 23:42:00,
2013-06-30 15:47:00,55.9,39.5,29.74,WSW,240,0.0,12.8,54,0.00,,---,0.00,VWS V13.00,2013-06-30 23:47:00,
2013-06-30 15:52:00,55.2,40.3,29.74,West,266,0.0,12.8,57,0.00,,---,0.00,VWS V13.00,2013-06-30 23:52:00,
2013-06-30 15:57:00,55.2,40.3,29.74,West,266,0.0,12.8,57,0.00,,---,0.00,VWS V13.00,2013-06-30 23:57:00,
2013-06-30 16:02:00,54.9,40.8,29.74,SW,235,0.0,0.0,59,0.00,,---,0.00,VWS V13.00,2013-07-01 00:02:00,
2013-06-30 16:07:00,54.7,40.7,29.74,WNW,291,5.4,5.4,59,0.00,,---,0.00,VWS V13.00,2013-07-01 00:07:00,
2013-06-30 16:12:00,54.7,40.7,29.74,WSW,253,0.0,7.6,59,0.00,,---,0.00,VWS V13.00,2013-07-01 00:12:00,
2013-06-30 16:17:00,54.3,41.2,29.74,SW,220,0.0,8.1,61,0.00,,---,0.00,VWS V13.00,2013-07-01 00:17:00,
2013-06-30 16:22:00,54.1,41.4,29.74,WSW,250,3.1,3.1,62,0.00,,---,0.00,VWS V13.00,2013-07-01 00:22:00,
2013-06-30 16:27:00,53.8,41.5,29.74,NW,313,0.0,3.1,63,0.00,,---,0.00,VWS V13.00,2013-07-01 00:27:00,
2013-06-30 16:32:00,53.8,41.9,29.74,West,273,0.0,3.1,64,0.00,,---,0.00,VWS V13.00,2013-07-01 00:32:00,
2013-06-30 16:37:00,53.8,42.3,29.74,SW,231,0.0,3.1,65,0.00,,---,0.00,VWS V13.00,2013-07-01 00:37:00,
2013-06-30 16:42:00,53.8,42.3,29.74,SW,227,0.0,0.0,65,0.00,,---,0.00,VWS V13.00,2013-07-01 00:42:00,
2013-06-30 16:47:00,53.8,42.7,29.74,West,260,0.0,0.0,66,0.00,,---,0.00,VWS V13.00,2013-07-01 00:47:00,
2013-06-30 16:52:00,53.6,42.9,29.74,WSW,252,0.0,0.0,67,0.00,,---,0.00,VWS V13.00,2013-07-01 00:52:00,
2013-06-30 16:57:00,53.4,43.1,29.74,West,265,0.0,0.0,68,0.00,,---,0.00,VWS V13.00,2013-07-01 00:57:00,
2013-06-30 17:02:00,53.4,43.1,29.74,SW,224,0.0,0.0,68,0.00,,---,0.00,VWS V13.00,2013-07-01 01:02:00,
2013-06-30 17:07:00,53.4,43.1,29.74,SW,226,0.0,0.0,68,0.00,,---,0.00,VWS V13.00,2013-07-01 01:07:00,
2013-06-30 17:12:00,53.1,43.2,29.74,SW,227,0.0,0.0,69,0.00,,---,0.00,VWS V13.00,2013-07-01 01:12:00,
2013-06-30 17:17:00,53.1,43.2,29.74,SW,222,0.0,0.0,69,0.00,,---,0.00,VWS V13.00,2013-07-01 01:17:00,
2013-06-30 17:22:00,52.9,43.4,29.74,SSW,206,0.0,0.0,70,0.00,,---,0.00,VWS V13.00,2013-07-01 01:22:00,
2013-06-30 17:27:00,52.7,43.2,29.74,SW,216,0.0,0.0,70,0.00,,---,0.00,VWS V13.00,2013-07-01 01:27:00,
2013-06-30 17:32:00,52.7,43.2,29.74,WSW,242,0.0,0.0,70,0.00,,---,0.00,VWS V13.00,2013-07-01 01:32:00,
2013-06-30 17:37:00,52.7,43.2,29.74,SSW,192,0.0,5.8,70,0.00,,---,0.00,VWS V13.00,2013-07-01 01:37:00,
2013-06-30 17:42:00,52.3,43.6,29.74,SSW,207,0.0,0.0,72,0.00,,---,0.00,VWS V13.00,2013-07-01 01:42:00,
2013-06-30 17:47:00,52.3,43.6,29.74,SW,224,0.0,0.0,72,0.00,,---,0.00,VWS V13.00,2013-07-01 01:47:00,
2013-06-30 17:52:00,52.0,43.6,29.74,WSW,253,0.0,0.0,73,0.00,,---,0.00,VWS V13.00,2013-07-01 01:52:00,
2013-06-30 17:57:00,51.8,43.4,29.74,WSW,245,0.0,0.0,73,0.00,,---,0.00,VWS V13.00,2013-07-01 01:57:00,
2013-06-30 18:02:00,51.8,43.8,29.74,West,262,0.0,5.4,74,0.00,,---,0.00,VWS V13.00,2013-07-01 02:02:00,
2013-06-30 18:07:00,51.8,43.8,29.74,WSW,246,0.0,5.4,74,0.00,,---,0.00,VWS V13.00,2013-07-01 02:07:00,
2013-06-30 18:12:00,51.6,44.0,29.74,WSW,248,0.0,5.4,75,0.00,,---,0.00,VWS V13.00,2013-07-01 02:12:00,
2013-06-30 18:17:00,51.6,44.0,29.74,WSW,241,0.0,5.4,75,0.00,,---,0.00,VWS V13.00,2013-07-01 02:17:00,
2013-06-30 18:22:00,51.6,44.0,29.74,WNW,291,0.0,0.0,75,0.00,,---,0.00,VWS V13.00,2013-07-01 02:22:00,
2013-06-30 18:27:00,51.4,43.8,29.71,WSW,256,0.0,0.0,75,0.00,,---,0.00,VWS V13.00,2013-07-01 02:27:00,
2013-06-30 18:32:00,51.4,43.8,29.71,WSW,252,0.0,0.0,75,0.00,,---,0.00,VWS V13.00,2013-07-01 02:32:00,
2013-06-30 18:36:00,51.3,44.0,29.71,West,263,0.0,0.0,76,0.00,,---,0.00,VWS V13.00,2013-07-01 02:36:00,
2013-06-30 18:41:00,51.3,44.3,29.71,WSW,248,0.0,0.0,77,0.00,,---,0.00,VWS V13.00,2013-07-01 02:41:00,
2013-06-30 18:46:00,51.3,44.3,29.71,WSW,251,0.0,4.5,77,0.00,,---,0.00,VWS V13.00,2013-07-01 02:46:00,
2013-06-30 18:51:00,51.3,44.3,29.71,NW,315,0.0,7.2,77,0.00,,---,0.00,VWS V13.00,2013-07-01 02:51:00,
2013-06-30 18:56:00,51.1,44.5,29.71,WSW,253,0.0,7.2,78,0.00,,---,0.00,VWS V13.00,2013-07-01 02:56:00,
2013-06-30 19:01:00,51.1,44.5,29.71,SW,225,0.0,0.0,78,0.00,,---,0.00,VWS V13.00,2013-07-01 03:01:00,
2013-06-30 19:06:00,50.9,44.3,29.71,WSW,248,0.0,0.0,78,0.00,,---,0.00,VWS V13.00,2013-07-01 03:06:00,
2013-06-30 19:11:00,50.9,44.3,29.71,South,187,0.0,0.0,78,0.00,,---,0.00,VWS V13.00,2013-07-01 03:11:00,
2013-06-30 19:16:00,50.9,44.6,29.71,SW,228,5.8,5.8,79,0.04,,---,0.04,VWS V13.00,2013-07-01 03:16:00,
2013-06-30 19:21:00,50.9,44.6,29.71,WSW,240,0.0,0.0,79,0.04,,---,0.04,VWS V13.00,2013-07-01 03:21:00,
2013-06-30 19:26:00,50.9,44.6,29.71,WSW,247,0.0,7.6,79,0.04,,---,0.04,VWS V13.00,2013-07-01 03:26:00,
2013-06-30 19:31:00,50.9,44.6,29.71,SW,234,0.0,7.6,79,0.04,,---,0.04,VWS V13.00,2013-07-01 03:31:00,
2013-06-30 19:32:00,50.9,44.6,29.71,SSW,209,0.0,7.6,79,0.04,,---,0.04,VWS V13.00,2013-07-01 03:32:00,
2013-06-30 19:37:00,50.9,45.0,29.71,WSW,237,0.0,7.6,80,0.04,,---,0.04,VWS V13.00,2013-07-01 03:37:00,
2013-06-30 19:41:00,50.7,44.8,29.71,SSW,203,0.0,6.3,80,0.04,,---,0.04,VWS V13.00,2013-07-01 03:41:00,
2013-06-30 19:47:00,50.7,44.8,29.71,SSW,202,0.0,6.3,80,0.04,,---,0.04,VWS V13.00,2013-07-01 03:47:00,
2013-06-30 19:52:00,50.7,44.8,29.71,SW,230,0.0,6.3,80,0.04,,---,0.04,VWS V13.00,2013-07-01 03:52:00,
2013-06-30 19:57:00,50.7,44.8,29.71,SSW,212,4.0,7.6,80,0.04,,---,0.04,VWS V13.00,2013-07-01 03:57:00,
2013-06-30 20:01:00,50.5,44.6,29.71,SSW,196,11.0,11.0,80,0.04,,---,0.04,VWS V13.00,2013-07-01 04:01:00,
2013-06-30 20:02:00,50.5,44.6,29.71,SW,228,5.4,11.0,80,0.04,,---,0.04,VWS V13.00,2013-07-01 04:02:00,
2013-06-30 20:07:00,50.5,44.6,29.71,WSW,237,0.0,11.0,80,0.04,,---,0.04,VWS V13.00,2013-07-01 04:07:00,
2013-06-30 20:12:00,50.4,44.8,29.71,SSW,208,0.0,11.0,81,0.04,,---,0.04,VWS V13.00,2013-07-01 04:12:00,
2013-06-30 20:17:00,50.4,44.8,29.71,WSW,251,0.0,11.0,81,0.04,,---,0.04,VWS V13.00,2013-07-01 04:17:00,
2013-06-30 20:22:00,50.4,44.8,29.71,SSW,211,0.0,0.0,81,0.00,,---,0.04,VWS V13.00,2013-07-01 04:22:00,
2013-06-30 20:27:00,50.4,44.8,29.71,SW,236,0.0,0.0,81,0.00,,---,0.04,VWS V13.00,2013-07-01 04:27:00,
2013-06-30 20:32:00,50.2,44.9,29.68,SW,236,0.0,0.0,82,0.00,,---,0.04,VWS V13.00,2013-07-01 04:32:00,
2013-06-30 20:37:00,50.2,44.9,29.68,WSW,241,0.0,0.0,82,0.00,,---,0.04,VWS V13.00,2013-07-01 04:37:00,
2013-06-30 20:42:00,50.2,44.9,29.68,South,190,0.0,0.0,82,0.00,,---,0.04,VWS V13.00,2013-07-01 04:42:00,
2013-06-30 20:47:00,50.2,44.9,29.65,WSW,250,0.0,0.0,82,0.04,,---,0.08,VWS V13.00,2013-07-01 04:47:00,
2013-06-30 20:52:00,50.2,44.9,29.65,SW,236,0.0,0.0,82,0.04,,---,0.08,VWS V13.00,2013-07-01 04:52:00,
2013-06-30 20:57:00,50.0,45.0,29.65,SW,223,0.0,0.0,83,0.04,,---,0.08,VWS V13.00,2013-07-01 04:57:00,
2013-06-30 21:02:00,49.8,44.9,29.65,SSW,206,0.0,0.0,83,0.04,,---,0.08,VWS V13.00,2013-07-01 05:02:00,
2013-06-30 21:07:00,49.8,44.9,29.65,SW,227,0.0,0.0,83,0.04,,---,0.08,VWS V13.00,2013-07-01 05:07:00,
2013-06-30 21:12:00,49.8,45.2,29.65,SW,227,0.0,0.0,84,0.04,,---,0.08,VWS V13.00,2013-07-01 05:12:00,
2013-06-30 21:17:00,49.8,45.2,29.65,West,261,0.0,0.0,84,0.04,,---,0.08,VWS V13.00,2013-07-01 05:17:00,
2013-06-30 21:22:00,49.8,45.2,29.65,WSW,257,0.0,0.0,84,0.04,,---,0.08,VWS V13.00,2013-07-01 05:22:00,
2013-06-30 21:27:00,49.8,45.2,29.65,SW,236,0.0,0.0,84,0.04,,---,0.08,VWS V13.00,2013-07-01 05:27:00,
2013-06-30 21:32:00,49.8,45.5,29.65,South,175,10.5,10.5,85,0.04,,---,0.08,VWS V13.00,2013-07-01 05:32:00,
2013-06-30 21:37:00,49.8,45.5,29.65,SW,233,8.7,11.0,85,0.04,,---,0.08,VWS V13.00,2013-07-01 05:37:00,
2013-06-30 21:42:00,49.6,45.3,29.65,WSW,247,7.2,11.9,85,0.04,,---,0.08,VWS V13.00,2013-07-01 05:42:00,
2013-06-30 21:47:00,49.6,45.3,29.65,SSW,196,8.1,11.9,85,0.04,,---,0.08,VWS V13.00,2013-07-01 05:47:00,
2013-06-30 21:52:00,49.6,45.3,29.62,WSW,238,5.4,12.8,85,0.04,,---,0.08,VWS V13.00,2013-07-01 05:52:00,
2013-06-30 21:57:00,49.6,45.3,29.62,SW,218,10.5,12.8,85,0.04,,---,0.08,VWS V13.00,2013-07-01 05:57:00,
2013-06-30 22:02:00,49.6,45.6,29.62,WSW,238,2.7,8.3,86,0.00,,---,0.08,VWS V13.00,2013-07-01 06:02:00,
2013-06-30 22:07:00,49.6,45.6,29.62,SW,232,3.6,12.3,86,0.00,,---,0.08,VWS V13.00,2013-07-01 06:07:00,
2013-06-30 22:12:00,49.6,45.6,29.62,SSW,207,7.6,15.0,86,0.00,,---,0.08,VWS V13.00,2013-07-01 06:12:00,
2013-06-30 22:17:00,49.6,45.6,29.62,SSW,207,0.0,15.0,86,0.00,,---,0.08,VWS V13.00,2013-07-01 06:17:00,
2013-06-30 22:22:00,49.5,45.5,29.62,SSW,207,8.1,10.1,86,0.00,,---,0.08,VWS V13.00,2013-07-01 06:22:00,
2013-06-30 22:27:00,49.5,45.5,29.62,SW,223,6.3,10.1,86,0.00,,---,0.08,VWS V13.00,2013-07-01 06:27:00,
2013-06-30 22:32:00,49.5,45.5,29.62,West,273,7.6,10.1,86,0.00,,---,0.12,VWS V13.00,2013-07-01 06:32:00,
2013-06-30 22:37:00,49.5,45.5,29.62,SW,236,10.1,10.5,86,0.04,,---,0.12,VWS V13.00,2013-07-01 06:37:00,
2013-06-30 22:42:00,49.5,45.5,29.62,WSW,247,6.7,11.0,86,0.04,,---,0.12,VWS V13.00,2013-07-01 06:42:00,
2013-06-30 22:47:00,49.5,45.5,29.62,WSW,240,7.6,11.0,86,0.04,,---,0.12,VWS V13.00,2013-07-01 06:47:00,
2013-06-30 22:52:00,49.3,45.3,29.59,WSW,246,4.5,13.2,86,0.04,,---,0.12,VWS V13.00,2013-07-01 06:52:00,
2013-06-30 22:57:00,49.3,45.6,29.59,South,179,0.0,13.2,87,0.04,,---,0.12,VWS V13.00,2013-07-01 06:57:00,
2013-06-30 23:02:00,49.3,45.6,29.59,SW,222,7.6,15.0,87,0.04,,---,0.12,VWS V13.00,2013-07-01 07:02:00,
2013-06-30 23:07:00,49.3,45.6,29.59,SW,227,8.1,17.4,87,0.04,,---,0.12,VWS V13.00,2013-07-01 07:07:00,
2013-06-30 23:12:00,49.1,45.4,29.59,WSW,252,5.4,17.4,87,0.04,,---,0.12,VWS V13.00,2013-07-01 07:12:00,
2013-06-30 23:17:00,49.1,45.7,29.59,WSW,237,22.4,22.4,88,0.04,,---,0.12,VWS V13.00,2013-07-01 07:17:00,
2013-06-30 23:22:00,49.1,45.7,29.59,SSW,199,5.8,15.4,88,0.04,,---,0.12,VWS V13.00,2013-07-01 07:22:00,
2013-06-30 23:27:00,49.1,45.7,29.59,SSW,212,0.0,16.3,88,0.04,,---,0.12,VWS V13.00,2013-07-01 07:27:00,
2013-06-30 23:32:00,49.1,45.7,29.59,West,260,9.6,16.3,88,0.04,,---,0.12,VWS V13.00,2013-07-01 07:32:00,
2013-06-30 23:37:00,49.1,45.7,29.59,SW,232,4.0,16.3,88,0.04,,---,0.12,VWS V13.00,2013-07-01 07:37:00,
2013-06-30 23:42:00,49.1,45.7,29.59,SW,234,5.4,11.0,88,0.00,,---,0.12,VWS V13.00,2013-07-01 07:42:00,
2013-06-30 23:47:00,48.9,45.5,29.59,WSW,245,12.3,13.2,88,0.00,,---,0.12,VWS V13.00,2013-07-01 07:47:00,
2013-06-30 23:52:00,48.9,45.8,29.59,SSW,205,7.6,15.0,89,0.00,,---,0.12,VWS V13.00,2013-07-01 07:52:00,
2013-06-30 23:57:00,48.9,45.8,29.59,SW,235,4.9,15.0,89,0.00,,---,0.12,VWS V13.00,2013-07-01 07:57:00,